Location: *
(35.8942°N, 23.3025°E)
Time: 00:08:54
(UTC+00:00)

N. Korean satellite - Pass Details

Date: 02 December 2022
Orbit: 407 x 442 km, 97.3° (Epoch: 05 February)

Event Time Altitude Azimuth Distance (km) Brightness Sun altitude
Rises 03:13:18 0° 22° (NNE) 2,514 10.3 -25.0°
Reaches altitude 10° 03:15:30 10° 32° (NNE) 1,628 9.5 -24.5°
Maximum altitude 03:18:42 33° 97° (E) 802 8.2 -23.9°
Drops below altitude 10° 03:21:49 10° 163° (SSE) 1,593 9.5 -23.3°
Sets 03:23:57 0° 174° (S) 2,450 10.4 -22.9°
